Regional Weather Roundup
Issued by NWS Newport/Morehead, NC

Current Version | Previous Version | Graphics & Text | Print | Product List | Glossary Off
Versions: 1 2 3 4 5 6 7 8 9 10 11 12 13 14 15 16 17 18 19 20 21 22 23 24 25 26 27 28 29 30 31 32 33 34 35 36 37 38 39 40 41 42 43 44 45 46 47 48 49 50

000
ASUS42 KMHX 211114
RWRMHX
WEATHER ROUNDUP FOR EASTERN NORTH CAROLINA
NATIONAL WEATHER SERVICE NEWPORT/MOREHEAD CITY NC
600 AM EST TUE NOV 21 2017

NOTE: "FAIR" INDICATES FEW OR NO CLOUDS BELOW 12,000 FEET
WITH NO SIGNIFICANT WEATHER AND/OR OBSTRUCTIONS TO VISIBILITY

NCZ015>017-031-032-045>047-102-103-211200-
NORTH COAST

CITY           SKY/WX    TMP DP  RH WIND       PRES   REMARKS
EDENTON        CLEAR     36  34  94 CALM      30.26S
ELIZABETH CITY PTCLDY    36  35  96 S3        30.25F
KITTY HAWK     SUNNY     46  36  69 CALM      30.25S
MANTEO         CLEAR     35  35 100 CALM      30.26S

$$

NCZ045>047-081-094-103-104-211200-
CENTRAL COAST

CITY           SKY/WX    TMP DP  RH WIND       PRES   REMARKS
FRISCO         CLEAR     49  46  90 NE6       30.25S

$$

NCZ095-097-098-100-101-211200-
SOUTHERN COAST

CITY           SKY/WX    TMP DP  RH WIND       PRES   REMARKS
BEAUFORT       CLEAR     43  40  89 N3        30.25S
CEDAR ISLAND   NOT AVBL
JACKSONVILLE   CLEAR     34  34 100 CALM      30.24S
PINEY ISLAND   NOT AVBL
WILMINGTON     CLEAR     39  36  89 NE3       30.24S


$$

NCZ011>013-027>030-043-044-078>080-089-090>093-098-211200-
COASTAL PLAIN

CITY           SKY/WX    TMP DP  RH WIND       PRES   REMARKS
AHOSKIE        CLEAR     28  28 100 CALM      30.26R
CLINTON        PTCLDY    32  32 100 CALM      30.26S
ELIZABETHTOWN  NOT AVBL
GOLDSBORO      CLOUDY    31  28  88 CALM      30.24R
GREENVILLE     CLOUDY    32  32 100 CALM      30.26S
HAVELOCK       NOT AVBL
KENANSVILLE    CLOUDY    28  28 100 CALM      30.26S FOG
KINSTON        NOT AVBL
NEW BERN       CLOUDY    33  33 100 CALM      30.26S
RICHLANDS      PTCLDY    30  29  96 CALM      30.25R
ROCKY MOUNT    CLEAR     28  28 100 CALM      30.25F
WASHINGTON     CLOUDY    32  30  93 CALM      30.26S
WHITEVILLE     CLOUDY    35  33  96 CALM      30.23S

$$

AMZ130-135-150-152-154-156-158-170-250-252-270-ANZ085-086-088-633-658-670-211200-
MARINE OBSERVATIONS

STATION/POSITION TIME  TEMP    WIND        PRES    WAVE   SWELL
                       AIR SEA DIR/SP/G            HT/PER HT/PER
                 (UTC) (F)     (DEG/KT/KT) (MB)    (FT/S) (FT/S)
CHESAPEAKE LIGHT NOT AVBL
64 E VA BEACH    1050   57 60  230/ 12/ 14 1024.6    2/ 3   2/ 6
DUCK             1048   49 60  210/  5/  5 1024.0
2 E DUCK         1100      61                N/A     1/ 8
OREGON INLET     1042   45 53  320/  2/  3 1024.5
13E OREGON INLT  1048      62                N/A     2/ 6   2/ 6
HATTERAS CG      1048   52 57   30/  4/  6 1024.0
DIAMOND BUOY     1100   62 75  360/  6/  8 1024.4
CAPE LOOKOUT     1100           20/  9/ 10 1024.1
BEAUFORT LAB     1048   47 58   20/  6/  8 1023.9
30 SE NEW RVR IN 1008   62 67   60/  8/ 12 1023.4
30 SE NEW RVR IN 1030      67                N/A     2/ 8
27 SE WRIGHTSVLE 1008   63 68   50/ 10/ 14 1022.8
5 SE WRIGHTSVLE  1008   57 63  360/  8/ 10 1023.2
225 S CAPE HAT   1050   70 76  100/ 16/ 19 1022.3    5/ 8   3/ 8
41 SE CHARLESTON 1100   70 73  120/ 12/ 16 1021.2

$$




USA.gov is the U.S. government's official web portal to all federal, state and local government web resources and services.